Flag for Canada Weather past 2 weeks in Annapolis County, Nova Scotia, Canada

Now
33 °F

Chilly.


Feels Like: 26 °F
Forecast: N/A
Wind: 8 mph from Northwest

Location: Kejimkujik 1

Current Time: Apr 1, 2015 at 6:56:49 PM

Latest Report: Apr 1, 2015 at 6:00 PM


Visibility: N/A

Pressure: 29.82 "Hg

Humidity: 32%

Dew point: 6 °F

Location of Annapolis CountyLocation

Historic Weather in Annapolis County — Graph

°F

Annapolis County temperature yesterday

Maximum temperature yesterday: 40 °F (at 2:00 PM)
Minimum temperature yesterday: 30 °F (at 2:00 AM)
Average temperature yesterday: 34 °F

Past Weeks' High & Low Weather Summary

 TemperatureHumidityPressure
High45 °F (Mar 25, 4:00 PM)100% (Mar 19, 3:00 AM)30.33 "Hg (Mar 19, 3:00 AM)
Low6 °F (Mar 24, 3:00 AM)25% (Mar 25, 3:00 PM)29.12 "Hg (Mar 18, 5:00 AM)
Average26 °F82%29.84 "Hg
* Reported Mar 17 5:00 PM — Apr 1 5:00 PM, Annapolis County, Weather by CustomWeather, © 2015

Note: Actual official high and low records may vary slightly from our data, if they occured in-between our weather recording intervals... More about our weather records

Advertising

Annapolis County weather history for previous 24 hours

 ConditionsComfort  
Time TempWeatherWind HumidityBarometerVisibility
5:00 PM
Wed, Apr 1
32 °FChilly.9 mph34%29.80 "HgN/A
4:00 PM33 °FChilly.10 mph34%29.77 "HgN/A
3:00 PM33 °FChilly.8 mph44%29.76 "HgN/A
2:00 PM33 °FChilly.9 mph39%29.75 "HgN/A
1:00 PM34 °FChilly.7 mph42%29.75 "HgN/A
12:00 PM34 °FChilly.8 mph43%29.78 "HgN/A
11:00 AM33 °FChilly.6 mph55%29.79 "HgN/A
10:00 AM32 °FChilly.5 mph60%29.80 "HgN/A
9:00 AM28 °FChilly.6 mph77%29.80 "HgN/A
8:00 AM24 °FCold.3 mph96%29.77 "HgN/A
7:00 AM23 °FCold.3 mph96%29.75 "HgN/A
6:00 AM25 °FCold.2 mph100%29.72 "HgN/A
5:00 AM26 °FChilly.1 mph96%29.71 "HgN/A
4:00 AM28 °FChilly.1 mph95%29.71 "HgN/A
3:00 AM28 °FChilly.2 mph96%29.72 "HgN/A
2:00 AM29 °FChilly.2 mph100%29.72 "HgN/A
1:00 AM31 °FChilly.2 mph92%29.72 "HgN/A
12:00 AM32 °FChilly.2 mph93%29.72 "HgN/A
11:00 PM
Tue, Mar 31
33 °FChilly.5 mph87%29.71 "HgN/A
10:00 PM31 °FChilly.5 mph94%29.70 "HgN/A
9:00 PM32 °FChilly.3 mph90%29.67 "HgN/A
8:00 PM35 °FChilly.5 mph82%29.64 "HgN/A
7:00 PM37 °FChilly.6 mph76%29.61 "HgN/A
6:00 PM38 °FChilly.5 mph74%29.59 "HgN/A
Weather by CustomWeather, © 2015

See weather overviewHow to use our weather pages